| time (UTC) | temp C | wind direction | speed KPH | gust KPH | rain 1hr cm | rain 24hr cm | rain mn cm | humidity % | barometer mb |
| 20260507110856 | 2 | 217 | 0.0 | 0.0 | 0.00 | 0.00 | 0.00 | 99 | 1014.0 |
| 20260507110352 | 1 | 211 | 0.0 | 0.0 | 0.00 | 0.00 | 0.00 | 99 | 1013.4 |
| 20260507105849 | 1 | 199 | 0.0 | 0.0 | 0.00 | 0.00 | 0.00 | 99 | 1013.4 |
| 20260507105346 | 1 | 203 | 9.7 | 11.3 | 0.00 | 0.00 | 0.00 | 99 | 1013.3 |
| 20260507104843 | 1 | 200 | 0.0 | 0.0 | 0.00 | 0.00 | 0.00 | 99 | 1013.5 |
| 20260507104339 | 1 | 198 | 3.2 | 3.2 | 0.00 | 0.00 | 0.00 | 99 | 1013.6 |
| 20260507103835 | 2 | 144 | 6.4 | 8.0 | 0.00 | 0.00 | 0.00 | 99 | 1013.6 |
| 20260507103332 | 2 | 192 | 6.4 | 8.0 | 0.00 | 0.00 | 0.00 | 99 | 1013.5 |
| 20260507102829 | 2 | 208 | 0.0 | 0.0 | 0.00 | 0.00 | 0.00 | 99 | 1013.7 |
| 20260507102325 | 1 | 220 | 0.0 | 0.0 | 0.00 | 0.00 | 0.00 | 99 | 1013.6 |
| 20260507101822 | 1 | 222 | 0.0 | 0.0 | 0.00 | 0.00 | 0.00 | 99 | 1013.8 |
| 20260507101316 | 1 | 223 | 0.0 | 0.0 | 0.00 | 0.00 | 0.00 | 99 | 1013.5 |
| 20260507100813 | 1 | 223 | 0.0 | 0.0 | 0.00 | 0.00 | 0.00 | 99 | 1013.9 |
| 20260507100311 | 1 | 219 | 0.0 | 0.0 | 0.00 | 0.00 | 0.00 | 99 | 1013.6 |
| 20260507095809 | 1 | 226 | 0.0 | 0.0 | 0.00 | 0.00 | 0.00 | 99 | 1013.7 |
| 20260507095306 | 1 | 225 | 0.0 | 0.0 | 0.00 | 0.00 | 0.00 | 99 | 1013.7 |
| 20260507094802 | 1 | 224 | 0.0 | 0.0 | 0.00 | 0.00 | 0.00 | 99 | 1013.4 |
| 20260507094259 | 2 | 222 | 0.0 | 0.0 | 0.00 | 0.00 | 0.00 | 99 | 1013.6 |
| 20260507093756 | 2 | 225 | 0.0 | 0.0 | 0.00 | 0.00 | 0.00 | 99 | 1013.5 |
| 20260507093255 | 2 | 228 | 0.0 | 0.0 | 0.00 | 0.00 | 0.00 | 99 | 1013.6 |
| 20260507092752 | 2 | 227 | 0.0 | 0.0 | 0.00 | 0.00 | 0.00 | 99 | 1013.5 |
| 20260507092248 | 2 | 224 | 0.0 | 0.0 | 0.00 | 0.00 | 0.00 | 99 | 1013.5 |
| 20260507091745 | 2 | 219 | 0.0 | 0.0 | 0.00 | 0.00 | 0.00 | 99 | 1013.6 |
| 20260507091242 | 2 | 215 | 0.0 | 0.0 | 0.00 | 0.00 | 0.00 | 99 | 1013.6 |
| 20260507090737 | 2 | 222 | 0.0 | 0.0 | 0.00 | 0.00 | 0.00 | 99 | 1013.6 |
| 20260507090234 | 2 | 223 | 0.0 | 0.0 | 0.00 | 0.00 | 0.00 | 99 | 1013.8 |
| 20260507085731 | 2 | 219 | 0.0 | 0.0 | 0.00 | 0.00 | 0.00 | 99 | 1013.4 |
| 20260507085227 | 2 | 215 | 0.0 | 0.0 | 0.00 | 0.00 | 0.00 | 99 | 1013.6 |
| 20260507084725 | 2 | 211 | 0.0 | 0.0 | 0.00 | 0.00 | 0.00 | 99 | 1013.8 |
| 20260507084221 | 3 | 224 | 0.0 | 0.0 | 0.00 | 0.00 | 0.00 | 99 | 1013.5 |
| 20260507083719 | 2 | 226 | 0.0 | 0.0 | 0.00 | 0.00 | 0.00 | 99 | 1013.6 |
| 20260507083215 | 2 | 225 | 0.0 | 0.0 | 0.00 | 0.00 | 0.00 | 99 | 1013.6 |
| 20260507082711 | 2 | 192 | 0.0 | 0.0 | 0.00 | 0.00 | 0.00 | 99 | 1013.6 |
| 20260507082207 | 2 | 212 | 0.0 | 0.0 | 0.00 | 0.00 | 0.00 | 99 | 1013.6 |
| 20260507081704 | 2 | 213 | 0.0 | 0.0 | 0.00 | 0.00 | 0.00 | 99 | 1013.8 |
| 20260507081200 | 3 | 220 | 0.0 | 0.0 | 0.00 | 0.00 | 0.00 | 99 | 1013.8 |
| 20260507080657 | 2 | 218 | 0.0 | 0.0 | 0.00 | 0.00 | 0.00 | 99 | 1013.7 |
| 20260507080153 | 3 | 223 | 0.0 | 0.0 | 0.00 | 0.00 | 0.00 | 99 | 1013.9 |
| 20260507075648 | 3 | 224 | 0.0 | 0.0 | 0.00 | 0.00 | 0.00 | 99 | 1013.5 |
| 20260507075145 | 3 | 226 | 0.0 | 0.0 | 0.00 | 0.00 | 0.00 | 99 | 1013.8 |
| 20260507074641 | 3 | 220 | 0.0 | 0.0 | 0.00 | 0.00 | 0.00 | 99 | 1013.5 |
| 20260507074140 | 3 | 220 | 0.0 | 0.0 | 0.00 | 0.00 | 0.00 | 98 | 1013.9 |
| 20260507073636 | 3 | 214 | 0.0 | 0.0 | 0.00 | 0.00 | 0.00 | 98 | 1013.5 |
| 20260507073132 | 3 | 202 | 0.0 | 0.0 | 0.00 | 0.00 | 0.00 | 98 | 1013.6 |
| 20260507072630 | 4 | 220 | 0.0 | 0.0 | 0.00 | 0.00 | 0.00 | 98 | 1013.8 |
| 20260507072127 | 4 | 219 | 0.0 | 0.0 | 0.00 | 0.00 | 0.00 | 98 | 1013.6 |
| 20260507071625 | 5 | 212 | 0.0 | 0.0 | 0.00 | 0.00 | 0.00 | 98 | 1013.4 |
| 20260507071121 | 5 | 214 | 0.0 | 0.0 | 0.00 | 0.00 | 0.00 | 98 | 1013.9 |
| 20260507070618 | 5 | 214 | 0.0 | 0.0 | 0.00 | 0.00 | 0.00 | 98 | 1013.7 |
| 20260507070115 | 5 | 221 | 0.0 | 0.0 | 0.00 | 0.00 | 0.00 | 98 | 1013.8 |
| 20260507065611 | 5 | 213 | 0.0 | 0.0 | 0.00 | 0.00 | 0.00 | 98 | 1013.8 |
| 20260507065108 | 5 | 216 | 0.0 | 0.0 | 0.00 | 0.00 | 0.00 | 97 | 1013.7 |
| 20260507064606 | 5 | 212 | 0.0 | 0.0 | 0.00 | 0.00 | 0.00 | 97 | 1013.8 |
| 20260507064104 | 5 | 224 | 0.0 | 0.0 | 0.00 | 0.00 | 0.00 | 97 | 1013.6 |
| 20260507063601 | 5 | 222 | 0.0 | 0.0 | 0.00 | 0.00 | 0.00 | 97 | 1013.6 |
| 20260507063059 | 5 | 208 | 0.0 | 0.0 | 0.00 | 0.00 | 0.00 | 97 | 1013.7 |
| 20260507062555 | 5 | 211 | 0.0 | 0.0 | 0.00 | 0.00 | 0.00 | 97 | 1013.7 |
| 20260507062053 | 5 | 208 | 0.0 | 0.0 | 0.00 | 0.00 | 0.00 | 96 | 1013.7 |
| 20260507061550 | 5 | 218 | 0.0 | 0.0 | 0.00 | 0.00 | 0.00 | 96 | 1014.1 |
| 20260507061048 | 5 | 220 | 0.0 | 0.0 | 0.00 | 0.00 | 0.00 | 95 | 1013.9 |
| 20260507060546 | 5 | 220 | 0.0 | 0.0 | 0.00 | 0.00 | 0.00 | 95 | 1013.8 |
| 20260507060042 | 5 | 220 | 0.0 | 0.0 | 0.00 | 0.00 | 0.00 | 95 | 1013.9 |
| 20260507055537 | 5 | 220 | 0.0 | 0.0 | 0.00 | 0.00 | 0.00 | 95 | 1014.0 |
| 20260507055034 | 5 | 201 | 0.0 | 0.0 | 0.00 | 0.00 | 0.00 | 95 | 1013.9 |
| 20260507054530 | 5 | 224 | 0.0 | 0.0 | 0.00 | 0.00 | 0.00 | 94 | 1013.8 |
| 20260507054027 | 5 | 223 | 0.0 | 0.0 | 0.00 | 0.00 | 0.00 | 94 | 1013.8 |
| 20260507053525 | 5 | 224 | 0.0 | 0.0 | 0.00 | 0.00 | 0.00 | 94 | 1013.9 |
| 20260507053023 | 5 | 227 | 0.0 | 0.0 | 0.00 | 0.00 | 0.00 | 94 | 1014.0 |
| 20260507052521 | 5 | 229 | 0.0 | 0.0 | 0.00 | 0.00 | 0.00 | 94 | 1013.8 |
| 20260507052017 | 6 | 225 | 0.0 | 0.0 | 0.00 | 0.00 | 0.00 | 93 | 1014.1 |
| 20260507051515 | 6 | 234 | 0.0 | 0.0 | 0.00 | 0.00 | 0.00 | 93 | 1014.1 |
| 20260507051012 | 6 | 229 | 0.0 | 0.0 | 0.00 | 0.00 | 0.00 | 92 | 1013.8 |
| 20260507050508 | 6 | 232 | 0.0 | 0.0 | 0.00 | 0.00 | 0.00 | 92 | 1014.1 |
| 20260507050005 | 6 | 236 | 0.0 | 0.0 | 0.00 | 0.00 | 0.00 | 92 | 1014.1 |
| 20260507045501 | 6 | 227 | 0.0 | 0.0 | 0.00 | 0.00 | 0.00 | 92 | 1014.0 |
| 20260507044959 | 6 | 228 | 0.0 | 0.0 | 0.00 | 0.00 | 0.00 | 91 | 1014.0 |
| 20260507044455 | 6 | 226 | 0.0 | 0.0 | 0.00 | 0.00 | 0.00 | 90 | 1014.1 |
| 20260507043951 | 6 | 226 | 0.0 | 0.0 | 0.00 | 0.00 | 0.00 | 90 | 1013.9 |
| 20260507043448 | 6 | 225 | 0.0 | 0.0 | 0.00 | 0.00 | 0.00 | 90 | 1014.2 |
| 20260507042944 | 6 | 233 | 0.0 | 0.0 | 0.00 | 0.00 | 0.00 | 90 | 1013.9 |
| 20260507042441 | 6 | 233 | 0.0 | 0.0 | 0.00 | 0.00 | 0.00 | 90 | 1014.1 |
| 20260507041937 | 6 | 225 | 0.0 | 0.0 | 0.00 | 0.00 | 0.00 | 89 | 1014.0 |
| 20260507041434 | 6 | 233 | 1.6 | 1.6 | 0.00 | 0.00 | 0.00 | 89 | 1013.8 |
| 20260507040931 | 6 | 225 | 0.0 | 0.0 | 0.00 | 0.00 | 0.00 | 89 | 1013.8 |
| 20260507040426 | 6 | 231 | 0.0 | 0.0 | 0.00 | 0.00 | 0.00 | 89 | 1013.8 |
| 20260507035922 | 6 | 228 | 0.0 | 0.0 | 0.00 | 2.13 | 2.13 | 88 | 1014.0 |
| 20260507035419 | 6 | 233 | 0.0 | 0.0 | 0.00 | 2.13 | 2.13 | 88 | 1014.0 |
| 20260507034916 | 6 | 243 | 0.0 | 0.0 | 0.00 | 2.13 | 2.13 | 87 | 1013.8 |
| 20260507034413 | 6 | 235 | 0.0 | 0.0 | 0.00 | 2.13 | 2.13 | 86 | 1013.7 |
| 20260507033911 | 6 | 346 | 0.0 | 0.0 | 0.00 | 2.13 | 2.13 | 86 | 1013.5 |
| 20260507033409 | 6 | 240 | 0.0 | 0.0 | 0.00 | 2.13 | 2.13 | 87 | 1013.5 |
| 20260507032905 | 6 | 278 | 4.8 | 4.8 | 0.00 | 2.13 | 2.13 | 88 | 1013.4 |
| 20260507032402 | 6 | 319 | 0.0 | 3.2 | 0.00 | 2.13 | 2.13 | 88 | 1013.4 |
| 20260507031858 | 6 | 242 | 0.0 | 0.0 | 0.00 | 2.13 | 2.13 | 88 | 1013.3 |
| 20260507031355 | 6 | 224 | 0.0 | 0.0 | 0.00 | 2.13 | 2.13 | 87 | 1013.7 |
| 20260507030852 | 6 | 222 | 0.0 | 0.0 | 0.00 | 2.13 | 2.13 | 85 | 1013.5 |
| 20260507030349 | 6 | 240 | 0.0 | 0.0 | 0.00 | 2.13 | 2.13 | 85 | 1013.5 |
| 20260507025845 | 6 | 254 | 3.2 | 3.2 | 0.00 | 2.13 | 2.13 | 84 | 1013.5 |
| 20260507025343 | 6 | 281 | 3.2 | 3.2 | 0.00 | 2.13 | 2.13 | 85 | 1013.4 |
| 20260507024841 | 6 | 254 | 1.6 | 3.2 | 0.00 | 2.13 | 2.13 | 86 | 1013.3 |
| 20260507024338 | 7 | 282 | 4.8 | 4.8 | 0.00 | 2.13 | 2.13 | 85 | 1013.5 |
| 20260507023834 | 7 | 319 | 4.8 | 8.0 | 0.00 | 2.13 | 2.13 | 85 | 1013.3 |
| 20260507023330 | 7 | 286 | 4.8 | 4.8 | 0.00 | 2.13 | 2.13 | 84 | 1013.3 |
| 20260507022828 | 7 | 304 | 3.2 | 4.8 | 0.00 | 2.13 | 2.13 | 84 | 1013.3 |
| 20260507022324 | 7 | 271 | 3.2 | 3.2 | 0.00 | 2.13 | 2.13 | 83 | 1013.3 |
| 20260507021820 | 7 | 281 | 4.8 | 4.8 | 0.00 | 2.13 | 2.13 | 83 | 1013.4 |
| 20260507021316 | 7 | 231 | 6.4 | 8.0 | 0.00 | 2.13 | 2.13 | 84 | 1013.3 |
| 20260507020814 | 7 | 251 | 3.2 | 8.0 | 0.00 | 2.13 | 2.13 | 86 | 1013.4 |
| 20260507020310 | 7 | 249 | 3.2 | 4.8 | 0.00 | 2.13 | 2.13 | 86 | 1013.4 |
| 20260507015808 | 7 | 279 | 4.8 | 4.8 | 0.00 | 2.13 | 2.13 | 86 | 1013.6 |
| 20260507015306 | 7 | 266 | 3.2 | 3.2 | 0.00 | 2.13 | 2.13 | 85 | 1013.4 |
| 20260507014802 | 7 | 262 | 3.2 | 3.2 | 0.00 | 2.13 | 2.13 | 85 | 1013.2 |
| 20260507014258 | 7 | 244 | 3.2 | 3.2 | 0.00 | 2.13 | 2.13 | 84 | 1013.5 |
| 20260507013755 | 7 | 286 | 3.2 | 3.2 | 0.00 | 2.13 | 2.13 | 84 | 1013.3 |
| 20260507013252 | 7 | 284 | 4.8 | 4.8 | 0.00 | 2.13 | 2.13 | 84 | 1013.5 |
| 20260507012749 | 7 | 293 | 4.8 | 4.8 | 0.00 | 2.13 | 2.13 | 84 | 1013.8 |
| 20260507012245 | 7 | 313 | 6.4 | 8.0 | 0.00 | 2.13 | 2.13 | 85 | 1013.7 |
| 20260507011743 | 8 | 324 | 6.4 | 8.0 | 0.00 | 2.13 | 2.13 | 85 | 1013.7 |
| 20260507011239 | 8 | 297 | 8.0 | 9.7 | 0.00 | 2.13 | 2.13 | 86 | 1013.2 |
| 20260507010738 | 8 | 339 | 11.3 | 12.9 | 0.00 | 2.13 | 2.13 | 86 | 1013.3 |
| 20260507010235 | 8 | 297 | 11.3 | 16.1 | 0.00 | 2.13 | 2.13 | 89 | 1013.3 |
| 20260507005733 | 8 | 313 | 19.3 | 22.5 | 0.00 | 2.13 | 2.13 | 92 | 1013.5 |
| 20260507005229 | 8 | 281 | 6.4 | 8.0 | 0.00 | 2.13 | 2.13 | 95 | 1013.1 |
| 20260507004725 | 8 | 247 | 6.4 | 9.7 | 0.00 | 2.13 | 2.13 | 96 | 1013.1 |
| 20260507004223 | 8 | 338 | 6.4 | 8.0 | 0.00 | 2.13 | 2.13 | 97 | 1012.6 |
| 20260507003719 | 8 | 257 | 4.8 | 8.0 | 0.00 | 2.13 | 2.13 | 98 | 1013.2 |
| 20260507003214 | 8 | 245 | 4.8 | 4.8 | 0.00 | 2.13 | 2.13 | 98 | 1012.6 |
| 20260507002711 | 8 | 275 | 3.2 | 3.2 | 0.00 | 2.13 | 2.13 | 98 | 1012.4 |
| 20260507002207 | 8 | 222 | 0.0 | 0.0 | 0.00 | 2.13 | 2.13 | 98 | 1012.6 |
| 20260507001704 | 8 | 239 | 0.0 | 0.0 | 0.00 | 2.13 | 2.13 | 98 | 1012.5 |
| 20260507001201 | 8 | 224 | 0.0 | 0.0 | 0.00 | 2.13 | 2.13 | 98 | 1012.3 |
| 20260507000657 | 8 | 213 | 0.0 | 0.0 | 0.00 | 2.13 | 2.13 | 97 | 1012.2 |
| 20260507000153 | 8 | 212 | 0.0 | 0.0 | 0.00 | 2.13 | 2.13 | 97 | 1012.1 |
| 20260506235650 | 8 | 214 | 0.0 | 0.0 | 0.00 | 2.13 | 2.13 | 97 | 1012.1 |
| 20260506235145 | 8 | 218 | 0.0 | 0.0 | 0.00 | 2.13 | 2.13 | 97 | 1012.1 |
| 20260506234643 | 8 | 209 | 0.0 | 0.0 | 0.00 | 2.13 | 2.13 | 96 | 1012.0 |
| 20260506234140 | 8 | 210 | 0.0 | 0.0 | 0.00 | 2.13 | 2.13 | 96 | 1011.9 |
| 20260506233637 | 8 | 202 | 0.0 | 0.0 | 0.00 | 2.13 | 2.13 | 96 | 1012.0 |
| 20260506233134 | 8 | 219 | 0.0 | 0.0 | 0.00 | 2.13 | 2.13 | 96 | 1011.9 |
| 20260506232630 | 8 | 216 | 0.0 | 0.0 | 0.00 | 2.13 | 2.13 | 96 | 1011.9 |
| 20260506232125 | 8 | 207 | 0.0 | 0.0 | 0.00 | 2.13 | 2.13 | 96 | 1011.6 |
| 20260506231623 | 8 | 191 | 0.0 | 0.0 | 0.00 | 2.13 | 2.13 | 96 | 1011.7 |
| 20260506231121 | 8 | 200 | 0.0 | 0.0 | 0.00 | 2.13 | 2.13 | 96 | 1011.7 |
| 20260506230618 | 8 | 215 | 0.0 | 0.0 | 0.00 | 2.13 | 2.13 | 95 | 1011.9 |
| 20260506230115 | 8 | 206 | 0.0 | 0.0 | 0.00 | 2.13 | 2.13 | 96 | 1011.9 |
| 20260506225611 | 8 | 220 | 0.0 | 0.0 | 0.00 | 2.13 | 2.13 | 96 | 1011.7 |
| 20260506225108 | 8 | 220 | 0.0 | 0.0 | 0.00 | 2.13 | 2.13 | 97 | 1011.8 |
| 20260506224605 | 8 | 216 | 0.0 | 0.0 | 0.00 | 2.13 | 2.13 | 97 | 1011.7 |
| 20260506224101 | 8 | 220 | 0.0 | 0.0 | 0.00 | 2.13 | 2.13 | 97 | 1011.6 |
| 20260506223557 | 8 | 220 | 0.0 | 0.0 | 0.00 | 2.13 | 2.13 | 98 | 1011.9 |
| 20260506223053 | 8 | 218 | 0.0 | 0.0 | 0.00 | 2.13 | 2.13 | 98 | 1011.5 |
| 20260506222550 | 8 | 222 | 0.0 | 0.0 | 0.00 | 2.13 | 2.13 | 98 | 1011.6 |
| 20260506222047 | 8 | 228 | 0.0 | 0.0 | 0.00 | 2.13 | 2.13 | 98 | 1011.6 |
| 20260506221544 | 8 | 228 | 0.0 | 0.0 | 0.00 | 2.13 | 2.13 | 99 | 1011.5 |
| 20260506221042 | 8 | 226 | 0.0 | 0.0 | 0.00 | 2.13 | 2.13 | 99 | 1011.5 |
| 20260506220538 | 8 | 235 | 0.0 | 0.0 | 0.00 | 2.13 | 2.13 | 99 | 1011.5 |
| 20260506220034 | 8 | 228 | 0.0 | 0.0 | 0.00 | 2.13 | 2.13 | 99 | 1011.3 |
| 20260506215531 | 8 | 225 | 0.0 | 0.0 | 0.00 | 2.13 | 2.13 | 99 | 1011.3 |
| 20260506215026 | 8 | 227 | 0.0 | 0.0 | 0.00 | 2.13 | 2.13 | 99 | 1011.4 |
| 20260506214524 | 8 | 228 | 0.0 | 0.0 | 0.13 | 2.13 | 2.13 | 99 | 1011.4 |
| 20260506214021 | 8 | 222 | 0.0 | 0.0 | 0.13 | 2.13 | 2.13 | 99 | 1011.3 |
| 20260506213519 | 8 | 247 | 0.0 | 0.0 | 0.00 | 2.11 | 2.11 | 99 | 1011.4 |
| 20260506213016 | 7 | 333 | 0.0 | 0.0 | 0.00 | 2.11 | 2.11 | 99 | 1011.5 |
| 20260506212512 | 7 | 259 | 0.0 | 0.0 | 0.18 | 2.11 | 2.11 | 98 | 1011.6 |
| 20260506212007 | 8 | 269 | 0.0 | 0.0 | 0.18 | 2.11 | 2.11 | 98 | 1011.6 |
| 20260506211503 | 8 | 243 | 0.0 | 0.0 | 0.00 | 2.08 | 2.08 | 98 | 1011.4 |
| 20260506211001 | 8 | 247 | 0.0 | 0.0 | 0.00 | 2.08 | 2.08 | 98 | 1011.4 |
| 20260506210457 | 8 | 242 | 0.0 | 0.0 | 0.00 | 2.08 | 2.08 | 98 | 1011.3 |
| 20260506205954 | 8 | 226 | 0.0 | 0.0 | 0.00 | 2.08 | 2.08 | 97 | 1011.2 |
| 20260506205450 | 7 | 266 | 0.0 | 0.0 | 0.00 | 2.08 | 2.08 | 97 | 1011.5 |
| 20260506204946 | 8 | 301 | 0.0 | 0.0 | 0.00 | 2.08 | 2.08 | 97 | 1011.2 |
| 20260506204444 | 8 | 275 | 0.0 | 0.0 | 0.00 | 2.08 | 2.08 | 96 | 1011.3 |
| 20260506203941 | 8 | 310 | 8.0 | 9.7 | 0.00 | 2.08 | 2.08 | 95 | 1011.3 |
| 20260506203438 | 8 | 264 | 4.8 | 4.8 | 0.00 | 2.08 | 2.08 | 94 | 1011.3 |
| 20260506202935 | 8 | 298 | 6.4 | 8.0 | 0.00 | 2.08 | 2.08 | 93 | 1011.2 |
| 20260506202432 | 8 | 234 | 3.2 | 4.8 | 0.00 | 2.08 | 2.08 | 94 | 1011.1 |
| 20260506201929 | 8 | 264 | 4.8 | 4.8 | 0.00 | 2.08 | 2.08 | 94 | 1011.2 |
| 20260506201426 | 8 | 302 | 6.4 | 8.0 | 0.00 | 2.08 | 2.08 | 93 | 1011.0 |
| 20260506200923 | 8 | 261 | 4.8 | 4.8 | 0.00 | 2.08 | 2.08 | 92 | 1011.3 |
| 20260506200419 | 8 | 235 | 3.2 | 3.2 | 0.00 | 2.08 | 2.08 | 91 | 1011.1 |
| 20260506195916 | 9 | 1 | 12.9 | 16.1 | 0.00 | 2.08 | 2.08 | 91 | 1011.0 |
| 20260506195413 | 8 | 217 | 1.6 | 4.8 | 0.00 | 2.08 | 2.08 | 90 | 1011.0 |
| 20260506194909 | 8 | 354 | 6.4 | 9.7 | 0.00 | 2.08 | 2.08 | 90 | 1010.7 |
| 20260506194406 | 8 | 309 | 4.8 | 8.0 | 0.00 | 2.08 | 2.08 | 90 | 1010.8 |
| 20260506193903 | 9 | 338 | 11.3 | 11.3 | 0.00 | 2.08 | 2.08 | 90 | 1010.9 |
| 20260506193400 | 8 | 328 | 8.0 | 9.7 | 0.00 | 2.08 | 2.08 | 90 | 1010.7 |
| 20260506192856 | 8 | 258 | 8.0 | 11.3 | 0.00 | 2.08 | 2.08 | 90 | 1010.8 |
| 20260506192354 | 8 | 282 | 9.7 | 11.3 | 0.00 | 2.08 | 2.08 | 91 | 1010.8 |
| 20260506191851 | 8 | 315 | 6.4 | 8.0 | 0.00 | 2.08 | 2.08 | 91 | 1010.9 |
| 20260506191347 | 8 | 329 | 9.7 | 11.3 | 0.00 | 2.08 | 2.08 | 91 | 1010.6 |
| 20260506190844 | 8 | 236 | 3.2 | 8.0 | 0.00 | 2.08 | 2.08 | 90 | 1010.5 |
| 20260506190340 | 9 | 333 | 8.0 | 8.0 | 0.00 | 2.08 | 2.08 | 90 | 1010.7 |
| 20260506185837 | 8 | 306 | 6.4 | 8.0 | 0.00 | 2.08 | 2.08 | 92 | 1010.4 |
| 20260506185334 | 8 | 230 | 3.2 | 4.8 | 0.00 | 2.08 | 2.08 | 92 | 1010.6 |
| 20260506184831 | 8 | 322 | 11.3 | 12.9 | 0.00 | 2.08 | 2.08 | 92 | 1010.8 |
| 20260506184328 | 8 | 317 | 9.7 | 12.9 | 0.00 | 2.08 | 2.08 | 93 | 1010.6 |
| 20260506183826 | 8 | 334 | 9.7 | 14.5 | 0.00 | 2.08 | 2.08 | 93 | 1010.5 |
| 20260506183321 | 8 | 328 | 12.9 | 16.1 | 0.00 | 2.08 | 2.08 | 92 | 1010.5 |
| 20260506182819 | 8 | 273 | 6.4 | 9.7 | 0.00 | 2.08 | 2.08 | 92 | 1010.4 |
| 20260506182315 | 8 | 344 | 12.9 | 16.1 | 0.00 | 2.08 | 2.08 | 93 | 1010.3 |
| 20260506181813 | 8 | 354 | 11.3 | 11.3 | 0.00 | 2.08 | 2.08 | 93 | 1010.6 |
| 20260506181311 | 8 | 340 | 9.7 | 11.3 | 0.00 | 2.08 | 2.08 | 93 | 1010.5 |
| 20260506180808 | 8 | 331 | 12.9 | 14.5 | 0.00 | 2.08 | 2.08 | 93 | 1010.5 |
| 20260506180304 | 8 | 267 | 4.8 | 8.0 | 0.00 | 2.08 | 2.08 | 93 | 1010.7 |
| 20260506175800 | 8 | 351 | 19.3 | 25.7 | 0.00 | 2.08 | 2.08 | 93 | 1010.3 |
| 20260506175257 | 8 | 289 | 8.0 | 11.3 | 0.00 | 2.08 | 2.08 | 93 | 1010.3 |
| 20260506174754 | 8 | 275 | 6.4 | 9.7 | 0.00 | 2.08 | 2.08 | 93 | 1010.3 |
| 20260506174252 | 8 | 313 | 8.0 | 9.7 | 0.00 | 2.08 | 2.08 | 94 | 1010.2 |
| 20260506173749 | 8 | 333 | 12.9 | 20.9 | 0.00 | 2.08 | 2.08 | 95 | 1010.0 |
| 20260506173246 | 8 | 332 | 12.9 | 14.5 | 0.00 | 2.08 | 2.08 | 96 | 1009.7 |
| 20260506172743 | 8 | 337 | 11.3 | 17.7 | 0.00 | 2.08 | 2.08 | 97 | 1010.0 |
| 20260506172239 | 8 | 313 | 8.0 | 9.7 | 0.00 | 2.08 | 2.08 | 97 | 1010.1 |
| 20260506171737 | 8 | 315 | 9.7 | 12.9 | 0.00 | 2.08 | 2.08 | 97 | 1009.9 |
| 20260506171234 | 7 | 247 | 8.0 | 9.7 | 0.00 | 2.08 | 2.08 | 98 | 1010.0 |
| 20260506170731 | 7 | 352 | 6.4 | 9.7 | 0.00 | 2.08 | 2.08 | 98 | 1009.9 |
| 20260506170228 | 8 | 295 | 9.7 | 12.9 | 0.00 | 2.08 | 2.08 | 99 | 1009.7 |
| 20260506165726 | 7 | 257 | 8.0 | 11.3 | 0.00 | 2.08 | 2.08 | 99 | 1009.7 |
| 20260506165223 | 8 | 255 | 4.8 | 4.8 | 0.00 | 2.08 | 2.08 | 99 | 1009.6 |
| 20260506164720 | 7 | 275 | 4.8 | 4.8 | 0.00 | 2.08 | 2.08 | 99 | 1009.5 |
| 20260506164217 | 8 | 296 | 4.8 | 4.8 | 0.00 | 2.08 | 2.08 | 99 | 1009.9 |
| 20260506163714 | 8 | 262 | 6.4 | 8.0 | 0.00 | 2.08 | 2.08 | 99 | 1009.6 |
| 20260506163209 | 7 | 320 | 8.0 | 11.3 | 0.00 | 2.08 | 2.08 | 99 | 1009.9 |
| 20260506162705 | 8 | 29 | 3.2 | 4.8 | 0.00 | 2.08 | 2.08 | 99 | 1009.5 |
| 20260506162203 | 8 | 236 | 4.8 | 8.0 | 0.00 | 2.08 | 2.08 | 99 | 1009.5 |
| 20260506161700 | 8 | 247 | 0.0 | 0.0 | 0.00 | 2.08 | 2.08 | 99 | 1009.4 |
| 20260506161156 | 8 | 253 | 4.8 | 4.8 | 0.00 | 2.08 | 2.08 | 99 | 1009.3 |
| 20260506160654 | 7 | 244 | 3.2 | 3.2 | 0.00 | 2.08 | 2.08 | 99 | 1009.1 |
| 20260506160151 | 8 | 284 | 12.9 | 16.1 | 0.13 | 2.08 | 2.08 | 99 | 1009.4 |
| 20260506155649 | 8 | 263 | 4.8 | 9.7 | 0.13 | 2.08 | 2.08 | 99 | 1009.6 |
| 20260506155146 | 7 | 284 | 6.4 | 8.0 | 0.13 | 2.08 | 2.08 | 99 | 1009.4 |
| 20260506153248 | 7 | 305 | 4.8 | 9.7 | 0.30 | 2.06 | 2.06 | 99 | 1009.9 |
| 20260506152745 | 7 | 314 | 8.0 | 14.5 | 0.30 | 2.03 | 2.03 | 99 | 1009.6 |
| 20260506152242 | 7 | 271 | 4.8 | 8.0 | 0.36 | 2.01 | 2.01 | 99 | 1009.9 |
| 20260506151741 | 6 | 254 | 8.0 | 9.7 | 0.18 | 1.98 | 1.98 | 99 | 1009.6 |
| 20260506151237 | 6 | 332 | 8.0 | 12.9 | 0.13 | 1.96 | 1.96 | 99 | 1009.7 |
| 20260506150734 | 6 | 281 | 6.4 | 9.7 | 0.13 | 1.96 | 1.96 | 99 | 1009.9 |
| 20260506150231 | 6 | 267 | 6.4 | 8.0 | 0.18 | 1.93 | 1.93 | 99 | 1009.6 |
| 20260506145728 | 6 | 262 | 3.2 | 3.2 | 0.48 | 1.93 | 1.93 | 99 | 1009.6 |
| 20260506145224 | 6 | 315 | 8.0 | 11.3 | 0.18 | 1.88 | 1.88 | 99 | 1009.6 |
| 20260506144722 | 6 | 260 | 6.4 | 8.0 | 0.00 | 1.85 | 1.85 | 99 | 1009.2 |
| 20260506144219 | 6 | 48 | 8.0 | 12.9 | 0.13 | 1.85 | 1.85 | 99 | 1009.5 |
| 20260506143716 | 6 | 339 | 6.4 | 8.0 | 0.13 | 1.85 | 1.85 | 99 | 1009.2 |
| 20260506143214 | 6 | 247 | 3.2 | 3.2 | 0.00 | 1.83 | 1.83 | 99 | 1009.0 |
| 20260506142713 | 6 | 267 | 3.2 | 3.2 | 0.00 | 1.83 | 1.83 | 99 | 1009.1 |
| 20260506142210 | 6 | 225 | 0.0 | 1.6 | 0.00 | 1.83 | 1.83 | 99 | 1008.9 |
| 20260506141708 | 7 | 241 | 3.2 | 4.8 | 0.18 | 1.83 | 1.83 | 99 | 1009.0 |
| 20260506141206 | 7 | 230 | 1.6 | 3.2 | 0.30 | 1.83 | 1.83 | 99 | 1008.5 |
| 20260506140703 | 6 | 223 | 0.0 | 0.0 | 0.30 | 1.80 | 1.80 | 99 | 1008.7 |
| 20260506140200 | 6 | 235 | 0.0 | 0.0 | 0.30 | 1.78 | 1.78 | 99 | 1008.7 |
| 20260506135657 | 6 | 225 | 1.6 | 1.6 | 0.30 | 1.75 | 1.75 | 99 | 1008.9 |
| 20260506135153 | 6 | 220 | 0.0 | 0.0 | 0.18 | 1.73 | 1.73 | 99 | 1008.7 |
| 20260506134650 | 6 | 249 | 1.6 | 1.6 | 0.13 | 1.70 | 1.70 | 99 | 1008.9 |
| 20260506134146 | 6 | 223 | 0.0 | 1.6 | 0.30 | 1.70 | 1.70 | 99 | 1008.8 |
| 20260506133643 | 7 | 205 | 1.6 | 1.6 | 0.36 | 1.68 | 1.68 | 99 | 1008.7 |
| 20260506133140 | 7 | 229 | 0.0 | 0.0 | 0.30 | 1.65 | 1.65 | 99 | 1008.9 |
| 20260506132637 | 7 | 259 | 4.8 | 4.8 | 0.13 | 1.63 | 1.63 | 99 | 1008.8 |
| 20260506132134 | 7 | 241 | 0.0 | 0.0 | 0.18 | 1.60 | 1.60 | 99 | 1008.9 |
| 20260506131632 | 7 | 225 | 0.0 | 0.0 | 0.18 | 1.60 | 1.60 | 99 | 1008.9 |
| 20260506131128 | 7 | 227 | 0.0 | 0.0 | 0.00 | 1.57 | 1.57 | 99 | 1008.6 |
| 20260506130625 | 7 | 240 | 3.2 | 3.2 | 0.13 | 1.57 | 1.57 | 99 | 1008.5 |
| 20260506130122 | 7 | 228 | 1.6 | 1.6 | 0.13 | 1.57 | 1.57 | 99 | 1008.5 |
| 20260506125620 | 7 | 222 | 0.0 | 0.0 | 0.18 | 1.55 | 1.55 | 99 | 1008.4 |
| 20260506125118 | 7 | 232 | 0.0 | 1.6 | 0.18 | 1.55 | 1.55 | 99 | 1008.8 |
| 20260506124615 | 7 | 222 | 0.0 | 0.0 | 0.13 | 1.52 | 1.52 | 99 | 1008.5 |
| 20260506124113 | 7 | 237 | 1.6 | 3.2 | 0.30 | 1.52 | 1.52 | 99 | 1008.7 |
| 20260506123610 | 7 | 298 | 4.8 | 4.8 | 0.30 | 1.50 | 1.50 | 99 | 1009.0 |
| 20260506123109 | 7 | 236 | 1.6 | 1.6 | 0.30 | 1.47 | 1.47 | 99 | 1008.8 |
| 20260506122605 | 7 | 215 | 0.0 | 1.6 | 0.30 | 1.45 | 1.45 | 99 | 1008.9 |
| 20260506122103 | 7 | 249 | 3.2 | 3.2 | 0.30 | 1.42 | 1.42 | 99 | 1009.0 |
| 20260506121601 | 7 | 264 | 1.6 | 3.2 | 0.30 | 1.40 | 1.40 | 99 | 1008.7 |
| 20260506121056 | 7 | 226 | 0.0 | 0.0 | 0.30 | 1.40 | 1.40 | 99 | 1009.0 |
| 20260506120555 | 7 | 233 | 1.6 | 3.2 | 0.30 | 1.37 | 1.37 | 99 | 1008.7 |
| 20260506120051 | 7 | 299 | 3.2 | 3.2 | 0.36 | 1.35 | 1.35 | 99 | 1008.8 |
| 20260506115550 | 7 | 249 | 1.6 | 1.6 | 0.30 | 1.32 | 1.32 | 99 | 1008.8 |
| 20260506115048 | 7 | 247 | 1.6 | 1.6 | 0.13 | 1.30 | 1.30 | 99 | 1008.6 |
| 20260506114545 | 8 | 336 | 8.0 | 9.7 | 0.30 | 1.27 | 1.27 | 99 | 1008.6 |
| 20260506114043 | 8 | 228 | 0.0 | 1.6 | 0.48 | 1.27 | 1.27 | 99 | 1008.5 |
| 20260506113541 | 8 | 318 | 8.0 | 9.7 | 0.43 | 1.24 | 1.24 | 99 | 1008.0 |
| 20260506113038 | 8 | 250 | 3.2 | 3.2 | 0.43 | 1.19 | 1.19 | 99 | 1008.0 |
| 20260506112534 | 8 | 229 | 0.0 | 0.0 | 0.61 | 1.17 | 1.17 | 99 | 1007.8 |
| 20260506112032 | 8 | 9 | 8.0 | 11.3 | 0.48 | 1.12 | 1.12 | 99 | 1008.1 |
| 20260506111530 | 8 | 237 | 0.0 | 0.0 | 0.48 | 1.07 | 1.07 | 99 | 1008.0 |